Stony Rapids Airport

Airport
ICAO code: 
CYSF
IATA Code: 
YSF
Summary
ICAO Region: 
NAM
Territory: 
Location: 
Stony Rapids, Saskatchewan
Serving: 
Stony Rapids
Elevation: 
801 ft
Coordinates: 
Aerial View: 
59° 15' 4.101" N, 105° 50' 29.755" W
Airport CFIT: 
Altimeter Temperature Error Correction
Metar
Observation
CYSF 201100Z AUTO 33004KT 9SM BKN200 M01/M07 A3016 RMK SLP230
Station
Stony Rapids Airport
Date/Time
2022-05-20 11:00:00
Wind direction
330°
Wind speed
04 kts
Lowest cloud amount
broken clouds
Temperature
-1°C
Dew point
-7°C
Humidity
63%
Weather condition
n/a

Airport serving Stony Rapids community in Saskatchewan, Canada. The airport is located on the southern outskirts of the town.

Climatology

Humid Continental climate (Köppen climate classification Dfc)

Runways

Designator Length Width Surface Rops
6/24 1539 30 TREATED GR Yes/Yes
Airport map: 
Aerial View: 

SKYbrary Partners:

Safety knowledge contributed by: